Wind_Speed
1 0 3 2 6 4 1 4 3 5 6 4 4 2 4 5 4 6 7 13 16 17 15 13 12 10 10 9 7 6 5 5 7 4 2 2 6 6 7 5 2 3 5 4 6 7 7 7 8
4 2 4 5 7 6 5 3 6 6 8 6 5 4 5 6 5 5 4 7 21 18 14 15 16 14 14 12 10 8 5 7 8 2 3 5 6 7 10 9 10 7 4 4 6 7 8 8 8
4 5 7 8 7 5 6 5 6 5 6 7 6 6 7 8 7 6 4 1 14 15 16 14 14 16 16 15 12 7 6 5 5 4 4 4 7 7 7 13 10 6 8 7 7 9 9 8 7
7 5 6 8 7 6 10 7 7 7 6 7 6 6 7 9 9 7 6 4 5 7 13 10 19 16 18 16 12 8 7 5 4 3 3 8 10 8 6 13 14 6 12 10 10 11 8 7 9
5 8 12 15 11 9 11 9 7 9 10 7 7 6 7 10 11 9 8 8 9 9 6 19 18 20 21 20 15 12 11 7 3 6 6 7 9 8 8 12 13 17 14 13 12 9 9 9 10
3 7 15 12 11 7 6 9 10 11 11 11 5 5 8 9 10 12 11 9 10 9 7 8 17 25 23 21 17 13 11 10 8 7 6 6 7 7 9 14 7 16 15 15 12 9 9 10 10
3 7 10 7 9 3 4 9 11 8 9 10 6 5 5 7 9 11 13 11 11 10 7 7 22 27 27 22 16 14 15 12 7 7 3 6 6 5 6 9 16 17 14 13 11 9 9 9 10
6 5 8 4 5 1 8 11 9 7 9 8 5 4 3 4 7 9 13 12 10 8 6 3 13 17 22 22 16 14 11 9 6 4 7 10 8 6 2 13 17 16 14 13 10 9 9 6 10
5 5 6 6 9 8 8 6 6 6 8 6 5 5 3 4 5 9 12 12 10 9 7 5 6 5 8 22 15 11 7 12 6 5 7 3 8 12 11 16 20 16 14 11 11 7 6 6 12
2 5 5 4 12 8 9 10 7 4 2 5 6 5 3 4 5 6 9 12 10 9 9 7 4 5 8 12 12 11 6 4 4 1 4 10 13 14 17 19 19 16 14 11 10 6 6 11 9
5 6 5 8 12 11 12 15 7 4 0 2 4 2 2 6 5 5 8 11 12 11 11 9 6 7 8 10 11 11 9 3 2 2 16 15 18 16 19 19 18 17 15 11 7 4 10 10 8
4 7 7 7 9 11 9 14 4 1 2 4 2 3 3 5 4 4 7 7 7 6 10 12 10 9 12 11 8 9 7 3 2 9 14 13 19 20 19 19 19 19 13 10 7 10 9 8 8
1 5 6 3 7 4 10 11 5 3 3 3 3 3 3 3 6 6 7 6 5 5 8 13 13 12 10 11 13 9 8 6 3 9 7 16 19 19 20 19 19 17 13 7 6 7 7 6 6
4 4 8 2 4 8 10 11 9 6 6 7 4 4 1 4 6 7 6 3 2 4 6 8 15 14 12 11 11 11 9 10 9 9 11 17 17 19 19 17 16 15 15 6 6 6 6 4 6
6 5 6 3 9 10 7 10 9 8 8 8 5 5 2 8 8 5 3 2 2 1 3 7 12 11 13 12 12 13 12 11 12 12 15 15 16 18 17 15 12 12 12 6 5 7 6 3 5
8 4 3 8 4 5 11 14 15 12 11 10 7 9 5 8 7 4 2 3 0 2 6 7 6 7 11 13 15 13 12 13 16 18 17 15 14 17 17 13 12 11 10 11 10 8 8 5 7
6 0 5 8 10 4 2 17 10 11 11 10 9 9 7 7 8 6 4 4 2 2 3 1 7 12 13 12 15 15 18 14 16 21 19 17 17 16 18 13 13 11 9 10 9 9 6 10 9
4 2 5 8 10 8 3 8 13 14 11 10 9 8 10 7 6 5 5 5 4 4 6 5 6 14 15 13 12 13 19 16 21 23 20 18 17 16 15 15 13 12 10 10 10 8 7 10 13
6 3 2 3 5 7 5 3 14 12 8 7 8 7 9 8 7 5 6 6 5 4 7 8 8 11 15 12 10 11 21 25 25 21 18 20 16 18 12 15 12 11 10 10 8 8 8 4 2
7 6 2 3 5 6 6 5 7 11 11 8 6 10 10 10 8 7 6 7 6 5 8 11 10 11 11 15 16 18 21 23 21 20 20 17 15 15 14 15 13 11 10 8 7 5 4 2 2
11 9 6 2 3 7 6 6 3 5 13 12 9 12 10 12 11 9 8 3 6 6 7 11 14 13 14 15 16 17 19 20 20 20 19 17 15 15 15 14 13 12 10 9 8 5 3 3 4
12 12 8 6 3 2 3 3 2 7 8 7 11 14 14 15 11 10 12 9 7 6 8 9 12 14 14 15 15 15 16 18 18 17 16 17 14 14 14 14 13 12 11 9 7 5 3 4 6
15 18 15 10 7 6 2 4 2 2 6 7 8 9 11 14 16 14 13 9 8 8 7 9 10 13 15 14 14 14 15 14 16 18 18 17 14 15 13 14 13 12 10 10 8 6 4 3 5
16 20 14 10 9 7 6 4 3 4 6 7 5 7 7 8 14 18 18 12 10 11 10 10 9 10 12 13 15 15 15 16 15 18 19 18 17 16 14 13 12 12 13 11 8 7 6 5 6
14 18 18 10 8 8 4 3 8 8 9 9 9 7 9 11 9 10 13 12 11 14 13 9 7 7 10 11 12 17 17 20 21 19 18 19 19 18 18 16 15 14 14 13 9 9 10 9 7
15 18 18 15 11 10 9 2 6 12 11 6 3 7 6 8 13 12 14 10 15 13 15 12 9 7 8 10 11 16 18 21 20 20 19 20 19 18 19 18 16 16 16 13 9 9 10 10 9
12 11 12 17 16 14 12 6 7 7 6 9 8 8 6 6 5 7 11 11 14 14 17 18 15 13 9 8 12 15 16 19 22 21 19 19 20 22 22 21 19 19 17 15 14 12 11 11 11
15 13 16 19 20 20 15 11 8 8 7 11 14 9 6 7 7 6 12 15 16 16 14 17 19 17 14 11 12 15 17 18 18 19 20 19 19 20 24 25 23 21 18 18 17 15 16 18 17
21 18 20 21 22 20 21 10 12 9 6 9 14 11 8 9 8 7 7 13 14 18 14 17 20 20 22 16 15 15 18 20 20 21 23 22 20 21 23 25 23 22 21 21 19 18 19 20 20
28 26 23 22 21 20 19 15 14 15 14 10 12 9 9 9 11 7 5 7 10 15 13 13 18 24 23 26 22 17 17 17 22 25 24 23 24 24 24 25 26 26 26 23 22 20 20 19 20
Wind_Direction
50 8 67 40 29 348 47 188 218 225 233 220 223 219 219 226 190 167 203 222 206 203 209 210 219 216 209 209 202 207 219 247 259 264 342 13 341 322 307 297 286 252 96 73 57 88 78 74 67
54 38 1 10 344 343 304 253 245 243 252 239 241 236 226 209 207 209 210 224 188 182 183 203 221 217 219 210 209 207 226 245 248 234 75 306 343 302 319 297 265 220 151 97 89 78 77 81 71
17 16 354 330 314 313 304 267 247 241 265 259 244 226 224 232 227 228 226 357 165 167 177 192 202 207 216 208 214 221 223 250 220 202 182 309 333 325 337 316 256 225 90 107 90 73 75 66 50
12 10 341 329 316 295 297 296 278 271 273 254 243 231 226 225 232 221 215 188 159 166 198 224 194 223 213 206 208 207 229 204 210 242 285 288 305 317 310 297 259 46 113 103 79 73 76 53 26
1 357 344 322 274 280 300 305 315 315 293 272 225 236 244 237 228 221 215 206 201 203 212 210 204 224 221 210 204 197 203 225 244 246 263 287 304 286 292 288 285 102 103 90 76 80 63 37 26
345 347 346 337 228 269 310 327 311 298 292 291 263 240 244 236 227 222 218 210 208 219 248 250 203 211 223 205 190 201 210 228 246 240 280 311 301 290 299 289 112 100 93 80 77 71 52 36 23
334 347 338 16 118 108 7 345 321 307 289 267 254 232 241 237 229 214 215 213 213 219 229 240 206 227 211 185 198 209 226 231 220 237 260 302 294 278 302 66 101 88 83 80 83 69 50 37 34
283 305 330 233 212 194 285 317 314 309 285 260 238 227 203 200 209 207 214 216 216 222 238 249 202 236 204 187 203 210 218 223 209 240 287 308 304 264 21 111 100 92 85 84 83 59 43 41 33
274 293 327 246 222 275 248 278 308 296 287 266 242 215 179 165 194 198 203 210 219 230 233 247 184 247 153 195 175 195 235 213 168 247 291 318 108 99 119 122 98 92 92 98 79 61 20 59 61
300 313 288 248 231 270 215 257 285 284 262 260 256 236 170 166 189 195 199 204 211 227 234 224 215 116 136 141 155 182 219 231 88 333 244 127 123 104 122 113 104 106 110 95 79 39 38 67 52
0 329 315 224 247 229 261 245 254 262 206 268 235 156 174 193 196 220 214 207 207 214 224 227 212 191 185 188 188 187 212 210 71 116 132 134 125 124 121 113 111 108 103 99 85 57 49 64 68
6 10 340 231 243 232 220 221 241 228 253 250 244 106 166 172 180 199 225 223 232 239 240 239 226 210 205 198 186 179 174 175 137 131 134 125 129 130 122 118 113 110 115 105 71 63 70 64 62
304 3 13 282 239 211 190 188 177 207 123 152 198 126 191 156 151 159 186 204 202 251 242 238 232 219 220 205 187 197 197 192 170 173 171 141 135 130 122 124 120 120 120 97 68 50 76 82 58
262 332 348 360 215 188 192 188 188 186 165 153 163 89 260 177 138 149 167 180 228 242 248 226 226 225 220 205 191 198 215 210 198 175 158 135 134 128 125 128 127 121 119 110 55 68 79 60 44
269 307 15 71 148 179 224 199 208 197 180 182 156 93 164 172 135 130 144 151 251 253 8 201 203 214 206 198 204 205 204 205 198 176 145 146 137 130 127 136 127 122 119 79 65 94 91 81 84
278 287 66 60 118 255 238 232 201 189 179 188 147 146 135 143 146 139 154 128 81 98 78 120 159 161 172 168 174 198 201 177 179 171 157 150 143 135 135 145 138 130 108 82 86 77 111 102 111
241 99 98 85 66 53 180 211 199 197 174 177 156 154 144 130 128 125 108 104 139 140 112 81 116 161 164 173 187 207 203 179 191 179 160 158 153 142 144 144 141 132 105 95 83 82 111 96 81
223 93 91 101 99 73 124 190 193 190 181 178 164 166 161 187 157 150 139 127 140 166 142 129 153 145 153 161 183 195 211 198 166 170 162 160 155 146 149 155 141 128 120 108 105 102 103 118 90
237 215 114 84 56 99 86 184 187 176 180 179 194 198 203 194 196 180 166 145 144 172 166 153 145 156 160 165 171 165 174 162 163 165 162 156 160 160 161 159 149 137 137 117 121 121 123 151 338
238 241 270 67 73 76 110 99 182 195 190 216 200 203 211 206 208 209 198 159 155 158 172 166 157 156 165 155 154 155 157 163 167 162 165 170 166 176 166 165 151 155 144 131 131 135 121 301 290
263 267 256 321 85 80 82 126 115 182 184 189 212 209 224 222 223 228 215 219 176 165 167 176 165 166 166 170 172 171 166 166 171 171 169 170 171 179 167 161 160 164 154 157 154 154 142 120 127
270 273 265 264 212 250 40 53 202 204 229 248 224 215 233 241 223 219 236 251 205 186 168 167 176 171 176 180 175 183 184 176 175 176 180 179 171 175 171 170 176 170 161 150 157 173 167 137 144
270 280 262 258 242 268 219 334 35 333 221 211 253 258 247 258 257 248 231 211 212 215 193 175 175 177 184 192 188 188 191 191 182 183 189 194 186 178 182 187 185 179 170 159 163 184 174 191 167
275 273 272 261 251 253 247 273 311 294 267 229 224 256 265 267 261 256 246 226 237 229 227 181 175 186 191 195 197 190 198 201 201 196 198 201 197 192 195 196 194 189 175 178 180 192 194 219 190
265 270 270 244 223 244 250 274 264 281 283 263 272 294 270 242 267 276 255 234 229 241 234 223 191 188 208 199 216 199 198 202 203 208 202 201 198 197 199 198 201 199 196 207 197 201 201 213 206
244 253 264 259 248 239 244 265 277 280 296 280 275 279 295 263 256 256 255 256 243 243 218 229 231 213 206 201 213 215 198 204 209 209 207 205 202 206 209 207 205 210 207 213 211 212 207 216 220
246 261 261 265 268 255 236 222 268 286 294 264 285 311 311 345 300 257 246 260 245 245 238 241 230 222 226 209 217 215 214 205 211 212 210 218 215 213 215 214 214 214 213 221 230 229 229 232 234
247 257 262 265 278 282 270 233 225 260 273 276 283 305 318 330 332 295 251 245 243 239 245 252 229 226 235 224 219 225 223 214 208 208 213 216 228 226 221 220 220 222 218 227 237 243 246 250 242
246 244 255 266 268 277 285 253 238 228 235 268 275 289 304 341 323 291 282 244 238 232 247 249 228 231 233 230 224 223 226 221 211 207 210 217 224 223 225 229 230 234 233 235 235 239 245 254 251
254 242 248 260 258 268 273 268 256 255 243 252 281 289 293 300 326 298 281 250 242 247 238 237 229 237 236 234 227 221 227 228 226 220 214 220 223 222 223 228 235 237 240 244 250 247 251 254 252
Height
5889 5889 5889 5889 5893 5891 5890 5890 5889 5887 5887 5887 5888 5889 5889 5889 5890 5893 5891 5892 5893 5895 5897 5899 5901 5903 5904 5906 5907 5907 5907 5907 5907 5906 5907 5909 5910 5909 5909 5908 5908 5908 5909 5910 5913 5913 5913 5913 5913
5888 5890 5890 5889 5891 5891 5890 5889 5888 5888 5887 5887 5887 5888 5888 5888 5889 5889 5890 5889 5889 5892 5895 5898 5899 5901 5902 5904 5906 5906 5907 5907 5907 5908 5908 5908 5908 5908 5908 5907 5904 5907 5907 5910 5913 5914 5914 5913 5913
5889 5889 5890 5889 5890 5890 5889 5888 5888 5888 5887 5887 5886 5886 5886 5887 5888 5888 5888 5887 5882 5889 5893 5895 5897 5899 5901 5902 5903 5906 5906 5906 5907 5908 5909 5908 5908 5908 5907 5907 5907 5907 5909 5911 5914 5915 5915 5915 5915
5888 5889 5890 5890 5889 5888 5887 5887 5886 5887 5887 5886 5885 5885 5885 5885 5886 5887 5887 5887 5888 5889 5891 5893 5896 5898 5899 5901 5904 5905 5906 5906 5907 5909 5910 5908 5907 5907 5907 5907 5907 5908 5910 5912 5915 5916 5915 5915 5914
5888 5887 5887 5887 5887 5887 5886 5886 5886 5886 5886 5885 5885 5884 5883 5884 5885 5886 5886 5887 5887 5887 5888 5890 5894 5896 5897 5899 5902 5903 5906 5906 5907 5908 5909 5907 5907 5907 5908 5907 5906 5910 5912 5914 5915 5916 5916 5916 5916
5888 5888 5886 5882 5883 5886 5887 5887 5886 5885 5885 5884 5883 5883 5883 5883 5882 5884 5885 5885 5886 5886 5887 5888 5890 5892 5894 5896 5899 5899 5904 5905 5906 5907 5906 5906 5907 5907 5908 5908 5911 5912 5913 5914 5916 5916 5916 5916 5915
5887 5887 5886 5884 5884 5886 5886 5887 5887 5886 5885 5884 5883 5881 5882 5881 5881 5882 5883 5884 5885 5885 5886 5886 5886 5888 5889 5891 5897 5898 5902 5903 5904 5905 5906 5907 5907 5908 5908 5909 5911 5911 5915 5915 5916 5917 5916 5916 5915
5886 5887 5886 5884 5884 5884 5886 5886 5887 5886 5885 5883 5882 5880 5880 5880 5880 5880 5882 5883 5883 5884 5884 5884 5885 5886 5885 5888 5895 5896 5900 5901 5903 5905 5905 5905 5906 5905 5908 5910 5911 5914 5915 5916 5917 5917 5917 5916 5914
5885 5886 5884 5884 5884 5885 5885 5885 5886 5885 5884 5883 5881 5880 5879 5879 5879 5879 5880 5881 5882 5883 5884 5885 5884 5884 5883 5889 5890 5894 5898 5898 5900 5903 5903 5904 5903 5905 5909 5912 5912 5916 5915 5916 5917 5917 5916 5916 5914
5884 5884 5883 5882 5882 5883 5883 5883 5885 5885 5883 5883 5882 5880 5878 5878 5879 5878 5879 5880 5880 5881 5882 5884 5885 5884 5885 5886 5891 5894 5896 5898 5899 5901 5902 5902 5903 5906 5911 5912 5914 5915 5915 5915 5916 5917 5917 5917 5915
5884 5882 5880 5881 5880 5881 5882 5881 5883 5884 5883 5883 5883 5880 5879 5879 5878 5879 5879 5879 5879 5880 5881 5883 5884 5886 5887 5890 5892 5895 5896 5896 5898 5899 5901 5903 5903 5908 5912 5913 5915 5916 5916 5916 5917 5917 5917 5918 5918
5882 5879 5877 5876 5877 5877 5878 5880 5881 5882 5881 5882 5882 5879 5880 5879 5878 5878 5879 5879 5879 5879 5880 5882 5883 5885 5887 5890 5891 5894 5895 5897 5899 5901 5902 5903 5905 5908 5912 5914 5916 5916 5917 5918 5918 5918 5919 5919 5918
5880 5878 5875 5873 5873 5875 5876 5878 5879 5880 5880 5881 5881 5879 5880 5879 5878 5877 5878 5879 5878 5878 5878 5879 5881 5883 5886 5889 5891 5893 5894 5898 5901 5903 5904 5905 5907 5910 5913 5915 5916 5917 5918 5918 5919 5920 5920 5919 5919
5879 5877 5874 5871 5871 5873 5875 5875 5876 5878 5879 5879 5880 5879 5879 5879 5878 5878 5879 5879 5878 5877 5876 5877 5879 5880 5884 5887 5890 5891 5893 5897 5901 5903 5905 5907 5909 5911 5913 5916 5916 5918 5918 5919 5920 5921 5921 5921 5921
5878 5877 5874 5871 5869 5870 5872 5876 5876 5877 5878 5879 5879 5878 5878 5878 5877 5878 5879 5878 5878 5877 5875 5874 5876 5879 5881 5884 5887 5889 5893 5897 5900 5904 5906 5908 5910 5912 5914 5916 5918 5918 5918 5920 5921 5921 5922 5922 5923
5878 5877 5874 5871 5869 5869 5870 5873 5875 5875 5876 5877 5877 5877 5878 5877 5877 5878 5878 5877 5878 5877 5877 5876 5875 5877 5880 5883 5887 5890 5893 5896 5900 5903 5906 5908 5911 5912 5914 5916 5917 5918 5918 5919 5921 5922 5923 5923 5923
5878 5876 5874 5872 5870 5868 5869 5870 5870 5875 5874 5875 5876 5876 5876 5876 5877 5877 5878 5877 5878 5878 5877 5878 5876 5878 5881 5884 5887 5889 5892 5896 5900 5903 5905 5908 5911 5913 5914 5917 5917 5918 5918 5920 5922 5923 5923 5924 5925
5878 5877 5875 5874 5871 5870 5869 5868 5871 5873 5873 5874 5874 5876 5876 5877 5876 5877 5878 5878 5877 5878 5878 5879 5879 5879 5881 5883 5887 5889 5892 5896 5899 5902 5905 5908 5911 5913 5914 5917 5918 5919 5919 5920 5922 5924 5925 5925 5926
5878 5877 5875 5875 5873 5870 5869 5868 5869 5869 5873 5873 5874 5875 5875 5876 5876 5876 5877 5878 5877 5878 5878 5879 5880 5881 5882 5884 5887 5888 5891 5896 5899 5902 5905 5908 5911 5914 5915 5918 5919 5920 5920 5920 5923 5925 5926 5927 5928
5877 5877 5877 5877 5875 5873 5869 5869 5868 5870 5871 5873 5873 5874 5875 5876 5876 5876 5877 5877 5878 5879 5879 5880 5882 5884 5884 5885 5888 5891 5894 5897 5900 5902 5904 5908 5911 5914 5916 5918 5918 5920 5921 5921 5924 5926 5926 5927 5926
5878 5878 5878 5878 5877 5876 5874 5872 5871 5870 5870 5871 5872 5873 5874 5874 5875 5876 5877 5878 5877 5878 5879 5880 5881 5883 5886 5888 5889 5891 5893 5896 5898 5901 5904 5908 5910 5913 5915 5917 5918 5920 5920 5922 5924 5926 5926 5926 5926
5877 5878 5878 5878 5878 5877 5876 5875 5873 5872 5873 5873 5872 5873 5873 5873 5874 5875 5876 5877 5878 5878 5879 5879 5880 5883 5884 5886 5888 5891 5893 5895 5898 5901 5905 5909 5910 5912 5915 5917 5918 5920 5921 5921 5923 5925 5926 5926 5927
5877 5876 5877 5877 5877 5876 5876 5876 5874 5873 5872 5873 5872 5873 5873 5872 5873 5874 5875 5876 5877 5878 5878 5879 5879 5881 5883 5884 5886 5889 5893 5896 5898 5901 5904 5907 5910 5911 5915 5917 5919 5920 5921 5923 5923 5924 5924 5927 5927
5874 5873 5874 5876 5876 5876 5876 5876 5875 5874 5874 5872 5871 5871 5871 5871 5870 5871 5873 5873 5875 5877 5878 5879 5880 5881 5883 5884 5885 5888 5891 5895 5897 5900 5902 5905 5908 5910 5914 5918 5919 5919 5920 5922 5922 5923 5924 5926 5926
5872 5872 5872 5874 5873 5873 5874 5875 5874 5873 5873 5874 5873 5872 5871 5870 5869 5869 5871 5870 5874 5876 5877 5878 5880 5880 5882 5882 5884 5887 5890 5892 5895 5898 5902 5904 5907 5909 5912 5915 5918 5919 5920 5921 5921 5922 5923 5925 5926
5867 5869 5870 5869 5871 5871 5871 5872 5871 5870 5871 5872 5871 5870 5869 5868 5868 5868 5868 5868 5871 5873 5875 5875 5877 5879 5880 5881 5883 5886 5888 5890 5894 5897 5901 5903 5904 5907 5910 5912 5914 5916 5918 5920 5921 5922 5922 5923 5924
5865 5867 5868 5866 5867 5868 5869 5870 5869 5868 5867 5869 5870 5869 5867 5866 5865 5865 5867 5868 5869 5870 5871 5872 5874 5876 5878 5880 5882 5884 5886 5889 5891 5894 5897 5900 5902 5905 5907 5909 5910 5913 5916 5919 5921 5922 5921 5922 5924
5862 5864 5865 5865 5864 5864 5865 5867 5866 5866 5865 5865 5866 5867 5865 5864 5863 5863 5864 5865 5866 5867 5867 5868 5870 5873 5875 5877 5879 5881 5883 5885 5887 5890 5894 5897 5899 5901 5905 5907 5907 5910 5911 5914 5917 5920 5921 5922 5922
5857 5858 5860 5860 5861 5862 5861 5865 5863 5865 5864 5863 5863 5864 5864 5862 5862 5862 5862 5862 5862 5864 5864 5865 5867 5870 5871 5873 5876 5879 5880 5883 5885 5887 5889 5892 5895 5897 5901 5906 5907 5908 5909 5911 5913 5916 5919 5921 5920
5853 5854 5856 5856 5858 5857 5858 5860 5860 5862 5863 5862 5862 5861 5861 5860 5859 5859 5860 5861 5861 5861 5861 5862 5864 5866 5867 5868 5872 5873 5876 5879 5882 5883 5884 5887 5890 5893 5895 5900 5904 5905 5906 5909 5911 5913 5914 5916 5917